Weather History for Reno, NV

Change the Weather History Date:

Saturday, March 9, 2013

  Actual Average Record
Temperature  
Mean Temperature 44 °F 45 °F  
Max Temperature 55 °F 57 °F 79 °F (1916)
Min Temperature 32 °F 33 °F 13 °F (1935)
Degree Days  
Heating Degree Days 21 20  
Month to date heating degree days 178 189  
Since 1 July heating degree days 3662 3827  
Cooling Degree Days 0 0  
Month to date cooling degree days 0 0  
Year to date cooling degree days 0 0  
Moisture  
Dew Point 15 °F    
Average Humidity 37    
Maximum Humidity 59    
Minimum Humidity 14    
Precipitation  
Precipitation 0.00 in 0.03 in 0.95 in (1943)
Month to date precipitation 0.13 0.29  
Year to date precipitation 0.25 2.34  
Snow  
Snow 0.00 in 0.10 in 6.00 in (1917)
Month to date snowfall 0.1 0.9  
Since 1 July snowfall 9.4 19.9  
Snow Depth 0.00 in    
Sea Level Pressure  
Sea Level Pressure 30.22 in    
Wind  
Wind Speed 5 mph (North)    
Max Wind Speed 16 mph    
Max Gust Speed 21 mph    
Visibility 10 miles    
Events      
T = Trace of Precipitation, MM = Missing Value Source: NWS Daily Summary

Daily Weather History Graph

Daily Weather History Graph

Search for Another Location

Airport:

Trip Planner

Search our weather history database for the weather conditions in past years. The results will help you decide how hot, cold, wet, or windy it might be!

Date:

Astronomy

Mar. 09, 2013 Rise Set
Actual Time 6:19 AM PST 6:00 PM PST
Civil Twilight 5:52 AM PST 6:27 PM PST
Nautical Twilight 5:21 AM PST 6:58 PM PST
Astronomical Twilight 4:50 AM PST 7:29 PM PST
Moon 4:46 AM PST (3/9) 4:08 PM PST (3/9)
Length of Visible Light 12h 34m
Length of Day
11h 40m
Waning Crescent, 5% of the Moon is Illuminated
Mar 9
Waning Crescent
Mar 11
New
Mar 19
First Quarter
Mar 27
Full
Apr 2
Last Quarter

Hourly Weather History & Observations

Time (PST) Temp. Windchill Dew Point Humidity Pressure Visibility Wind Dir Wind Speed Gust Speed Precip Events Conditions
12:55 AM 39.0 °F - 26.1 °F 60% 29.98 in 10.0 mi Calm Calm - N/A   Mostly Cloudy
1:55 AM 37.0 °F 34.5 °F 25.0 °F 62% 30.01 in 10.0 mi NNE 3.5 mph - N/A   Scattered Clouds
2:55 AM 37.0 °F 32.4 °F 25.0 °F 62% 30.04 in 10.0 mi NNW 5.8 mph - N/A   Overcast
3:55 AM 35.6 °F 32.8 °F 23.0 °F 60% 30.08 in 10.0 mi ENE 3.5 mph - N/A   Mostly Cloudy
4:55 AM 34.0 °F - 19.9 °F 56% 30.10 in 10.0 mi Calm Calm - N/A   Partly Cloudy
5:55 AM 33.1 °F 28.7 °F 18.0 °F 54% 30.15 in 10.0 mi NNE 4.6 mph - N/A   Partly Cloudy
6:55 AM 33.1 °F 30.0 °F 18.0 °F 54% 30.17 in 10.0 mi NE 3.5 mph - N/A   Scattered Clouds
7:55 AM 37.0 °F 33.3 °F 18.0 °F 46% 30.21 in 10.0 mi NNE 4.6 mph - N/A   Scattered Clouds
8:55 AM 41.0 °F 39.0 °F 16.0 °F 36% 30.22 in 10.0 mi NW 3.5 mph - N/A   Partly Cloudy
9:55 AM 44.1 °F - 16.0 °F 32% 30.22 in 10.0 mi Calm Calm - N/A   Partly Cloudy
10:55 AM 46.0 °F 42.5 °F 15.1 °F 29% 30.24 in 10.0 mi North 6.9 mph - N/A   Partly Cloudy
11:55 AM 48.0 °F - 15.1 °F 27% 30.24 in 10.0 mi Calm Calm - N/A   Partly Cloudy
12:55 PM 52.0 °F - 12.0 °F 20% 30.22 in 10.0 mi Variable 4.6 mph - N/A   Partly Cloudy
1:55 PM 54.0 °F - 10.9 °F 18% 30.23 in 10.0 mi North 13.8 mph 19.6 mph N/A   Clear
2:55 PM 54.0 °F - 8.1 °F 16% 30.24 in 10.0 mi NNE 6.9 mph - N/A   Clear
3:55 PM 54.0 °F - 7.0 °F 15% 30.25 in 10.0 mi NNE 9.2 mph - N/A   Clear
4:55 PM 53.1 °F - 6.1 °F 15% 30.28 in 10.0 mi North 12.7 mph - N/A   Clear
5:55 PM 51.1 °F - 3.9 °F 15% 30.30 in 10.0 mi NNE 5.8 mph - N/A   Clear
6:55 PM 48.0 °F - 6.1 °F 18% 30.33 in 10.0 mi NE 4.6 mph - N/A   Clear
7:55 PM 45.0 °F 40.1 °F 12.0 °F 26% 30.35 in 10.0 mi WNW 9.2 mph - N/A   Clear
8:55 PM 41.0 °F - 12.9 °F 32% 30.36 in 10.0 mi Calm Calm - N/A   Clear
9:55 PM 39.9 °F - 12.0 °F 32% 30.37 in 10.0 mi Calm Calm - N/A   Clear
10:55 PM 35.1 °F 32.2 °F 12.0 °F 39% 30.39 in 10.0 mi Variable 3.5 mph - N/A   Clear
11:55 PM 35.1 °F 31.0 °F 12.9 °F 40% 30.40 in 10.0 mi West 4.6 mph - N/A   Clear